International Virtual Aviation Organisation

Russian Federation and Kazakhstan MCD

 

Карточка аэропорта UUDD

Внимание!
Информация на этой странице в стадии наполнения.
Если вы не увидели какой-то информации, или заметили неточность - пожалуйста сообщите нам!
Спасибо!
Команда RU-STAFF
Название аэропортаДомодедово
Название аэропорта (англ.)Domodedovo
Превышение594 ft. (181.1 m.)
Координаты55°24.516', 37°54.384'
Высота перехода1200 m
Эшелон переходаBy ATC
Коды ответчика1540-1577
Зона ОрВДМосква РПИ (UUWV)
Данные METARUUDD 091430Z 01006MPS CAVOK 25/09 Q1015 R88/CLRD60 NOSIG
Проноз погоды (TAF)UUDD 091353Z 0915/1021 35003G08MPS 9999 SCT020 TX25/1012Z TN12/1001Z PROB40 TEMPO 0921/1004 0300 FG FEW003 BECMG 1009/1011 27005MPS TEMPO 1011/1021 29008G13MPS -SHRA FEW007 BKN016CB PROB40 TEMPO 1013/1018 -TSRA SCT020CB
NOTAMshow/hide NOTAM
AWOS   TABLE

Информация о ВПП

ВПП Длина ВПП (м.) Покрытие Курс ВПП Частота ILS
14L2370Железобетон135 
32R2370Железобетон315 
14R3500Цементобетон135110.1
32L3500Цементобетон315109.3
143800Цементобетон135108.5
323800Цементобетон315111.9

Диспетчерские позиции

Позывной Наименование органа УВД Частота
UUDD_R_APPДомодедово-Круг127.700
UUDD_TWRДомодедово-Вышка118.600
UUDD_TWRДомодедово-Вышка119.700
UUDD_DELДомодедово-Деливери 129.150
UUDD_GNDДомодедово-Перрон119.000
UUDD_GNDДомодедово-Перрон123.750



Спутниковое изображение